BOXER99 KADW-KNZY

Flight info

Callsign BOXER99
Flight time 5h 18m
Altitude 40000
Route LINCN2 OTTTO Q176 GBEES J134 STL J24 MCI J80 GLD J146 HBU KD42Q EED BARET5
Aircraft B737/M-SDE2E3FGHIRWXY/LB1

Departure

Time 2026-04-26 12:58
Airport Joint Base Andrews (KADW)

Arrival

Time 2026-04-26 18:16
Airport North Island Naval Air Station-Halsey Field (KNZY)
Time Latitude Longitude Altitude Speed Heading
2026-04-26 12:28 38.80428 -76.88429 286 ft 0 kts 90°
2026-04-26 12:53 38.80428 -76.88427 286 ft 1 kts 90°
2026-04-26 12:53 38.80428 -76.88393 286 ft 7 kts 98°
2026-04-26 12:53 38.80371 -76.88381 286 ft 9 kts 181°
2026-04-26 12:53 38.80302 -76.88371 286 ft 9 kts 142°
2026-04-26 12:54 38.80289 -76.88266 286 ft 18 kts 90°
2026-04-26 12:54 38.80286 -76.88089 286 ft 20 kts 90°
2026-04-26 12:54 38.80287 -76.87954 286 ft 20 kts 90°
2026-04-26 12:54 38.80287 -76.87817 286 ft 20 kts 90°
2026-04-26 12:55 38.80286 -76.87628 286 ft 21 kts 89°
2026-04-26 12:55 38.80282 -76.87464 286 ft 10 kts 122°
2026-04-26 12:55 38.80204 -76.87444 286 ft 14 kts 180°
2026-04-26 12:55 38.80075 -76.87447 286 ft 22 kts 179°
2026-04-26 12:56 38.79913 -76.87444 286 ft 23 kts 180°
2026-04-26 12:56 38.79789 -76.87384 286 ft 19 kts 108°
2026-04-26 12:56 38.79785 -76.87211 286 ft 19 kts 90°
2026-04-26 12:56 38.79819 -76.87067 286 ft 14 kts 18°
2026-04-26 12:57 38.79950 -76.87063 286 ft 40 kts
2026-04-26 12:57 38.80487 -76.87064 286 ft 111 kts 360°
2026-04-26 12:57 38.81462 -76.87069 343 ft 161 kts 360°
2026-04-26 12:58 38.83784 -76.87385 1697 ft 180 kts 335°
2026-04-26 12:58 38.84643 -76.88600 2213 ft 202 kts 295°
2026-04-26 12:58 38.84760 -76.90438 2856 ft 211 kts 271°
2026-04-26 12:58 38.84642 -76.92333 3394 ft 223 kts 268°
2026-04-26 12:59 38.84462 -76.94418 3818 ft 239 kts 267°
2026-04-26 12:59 38.84295 -76.96612 4237 ft 260 kts 268°
2026-04-26 12:59 38.84165 -76.99003 4827 ft 272 kts 270°
2026-04-26 12:59 38.84085 -77.01460 5575 ft 278 kts 271°
2026-04-26 13:00 38.84040 -77.03954 6442 ft 280 kts 272°
2026-04-26 13:00 38.84016 -77.06409 7360 ft 279 kts 273°
2026-04-26 13:00 38.84007 -77.08859 8341 ft 275 kts 276°
2026-04-26 13:00 38.84185 -77.11263 9187 ft 272 kts 289°
2026-04-26 13:01 38.84941 -77.13504 9601 ft 281 kts 309°
2026-04-26 13:01 38.86208 -77.15466 10368 ft 283 kts 317°
2026-04-26 13:01 38.87481 -77.17302 11402 ft 280 kts 316°
2026-04-26 13:01 38.88703 -77.19277 12292 ft 284 kts 312°
2026-04-26 13:02 38.89842 -77.21366 13116 ft 290 kts 310°
2026-04-26 13:02 38.90930 -77.23521 13922 ft 295 kts 306°
2026-04-26 13:02 38.91757 -77.25986 14794 ft 307 kts 290°
2026-04-26 13:02 38.91951 -77.28767 15444 ft 327 kts 271°
2026-04-26 13:03 38.91646 -77.31762 15968 ft 344 kts 266°
2026-04-26 13:03 38.91236 -77.34874 16508 ft 358 kts 265°
2026-04-26 13:03 38.90809 -77.38062 16944 ft 365 kts 265°
2026-04-26 13:03 38.90383 -77.41326 16991 ft 368 kts 265°
2026-04-26 13:04 38.89961 -77.44675 17582 ft 376 kts 265°
2026-04-26 13:04 38.89555 -77.47928 18682 ft 370 kts 265°
2026-04-26 13:04 38.89154 -77.51183 19478 ft 372 kts 265°
2026-04-26 13:04 38.88748 -77.54504 20222 ft 376 kts 265°
2026-04-26 13:05 38.88342 -77.57824 20933 ft 380 kts 265°
2026-04-26 13:05 38.87926 -77.61215 21641 ft 384 kts 264°
2026-04-26 13:05 38.87510 -77.64598 22319 ft 387 kts 264°
2026-04-26 13:05 38.87076 -77.68109 22991 ft 391 kts 264°
2026-04-26 13:06 38.86646 -77.71581 23648 ft 395 kts 263°
2026-04-26 13:06 38.86214 -77.75055 24291 ft 396 kts 263°
2026-04-26 13:06 38.85780 -77.78532 24995 ft 396 kts 263°
2026-04-26 13:06 38.85345 -77.82005 25605 ft 399 kts 263°
2026-04-26 13:07 38.84928 -77.85496 26242 ft 400 kts 264°
2026-04-26 13:07 38.84655 -77.89074 26881 ft 400 kts 268°
2026-04-26 13:07 38.84594 -77.92615 27500 ft 400 kts 271°
2026-04-26 13:07 38.84649 -77.96195 27993 ft 403 kts 272°
2026-04-26 13:08 38.84758 -77.99842 28500 ft 406 kts 273°
2026-04-26 13:08 38.84886 -78.03516 29099 ft 406 kts 273°
2026-04-26 13:08 38.85014 -78.07171 29588 ft 409 kts 273°
2026-04-26 13:08 38.85135 -78.10786 30055 ft 412 kts 273°
2026-04-26 13:09 38.85253 -78.14519 30592 ft 413 kts 272°
2026-04-26 13:09 38.85366 -78.18246 31028 ft 416 kts 272°
2026-04-26 13:09 38.85464 -78.21958 31469 ft 418 kts 272°
2026-04-26 13:09 38.85489 -78.25727 31890 ft 422 kts 270°
2026-04-26 13:10 38.85455 -78.29494 32280 ft 425 kts 270°
2026-04-26 13:10 38.85394 -78.33341 32700 ft 428 kts 269°
2026-04-26 13:10 38.85328 -78.37181 33119 ft 429 kts 270°
2026-04-26 13:10 38.85264 -78.40987 33778 ft 426 kts 270°
2026-04-26 13:11 38.85204 -78.44761 34350 ft 424 kts 270°
2026-04-26 13:11 38.85147 -78.48570 34776 ft 423 kts 270°
2026-04-26 13:11 38.85092 -78.52343 35153 ft 423 kts 270°
2026-04-26 13:11 38.85039 -78.56177 35537 ft 423 kts 270°
2026-04-26 13:12 38.84988 -78.59907 35908 ft 422 kts 270°
2026-04-26 13:12 38.84936 -78.63705 36293 ft 421 kts 270°
2026-04-26 13:12 38.84884 -78.67504 36732 ft 421 kts 269°
2026-04-26 13:12 38.84830 -78.71298 37143 ft 421 kts 269°
2026-04-26 13:13 38.84775 -78.75063 37486 ft 422 kts 269°
2026-04-26 13:13 38.84721 -78.78790 37808 ft 422 kts 269°
2026-04-26 13:13 38.84665 -78.82564 38148 ft 422 kts 269°
2026-04-26 13:13 38.84607 -78.86357 38453 ft 422 kts 269°
2026-04-26 13:14 38.84549 -78.90018 38737 ft 422 kts 269°
2026-04-26 13:14 38.84490 -78.93738 39021 ft 422 kts 269°
2026-04-26 13:14 38.84428 -78.97533 39293 ft 423 kts 269°
2026-04-26 13:14 38.84366 -79.01294 39548 ft 423 kts 269°
2026-04-26 13:15 38.84302 -79.05074 39845 ft 422 kts 269°
2026-04-26 13:15 38.84237 -79.08853 40055 ft 422 kts 269°
2026-04-26 13:15 38.84125 -79.15204 40063 ft 429 kts 269°
2026-04-26 13:16 38.83960 -79.24206 40058 ft 433 kts 269°
2026-04-26 13:16 38.83813 -79.31905 40053 ft 432 kts 269°
2026-04-26 13:17 38.83581 -79.43534 40049 ft 432 kts 269°
2026-04-26 13:18 38.83340 -79.55086 40051 ft 433 kts 270°
2026-04-26 13:19 38.83085 -79.66722 40052 ft 433 kts 269°
2026-04-26 13:19 38.82908 -79.74519 40060 ft 434 kts 269°
2026-04-26 13:20 38.82726 -79.82277 40058 ft 433 kts 269°
2026-04-26 13:20 38.82540 -79.89985 40063 ft 434 kts 269°
2026-04-26 13:21 38.82348 -79.97746 40058 ft 433 kts 269°
2026-04-26 13:21 38.82151 -80.05497 40046 ft 433 kts 269°
2026-04-26 13:22 38.81950 -80.13254 40042 ft 433 kts 269°
2026-04-26 13:22 38.81743 -80.20991 40041 ft 433 kts 269°
2026-04-26 13:23 38.81531 -80.28725 40047 ft 433 kts 269°
2026-04-26 13:23 38.81314 -80.36456 40044 ft 433 kts 269°
2026-04-26 13:24 38.81092 -80.44172 40052 ft 433 kts 269°
2026-04-26 13:24 38.80864 -80.51904 40046 ft 433 kts 269°
2026-04-26 13:25 38.80633 -80.59601 40051 ft 432 kts 269°
2026-04-26 13:25 38.80395 -80.67351 40053 ft 432 kts 269°
2026-04-26 13:26 38.80153 -80.75055 40049 ft 433 kts 269°
2026-04-26 13:26 38.79906 -80.82773 40054 ft 434 kts 269°
2026-04-26 13:27 38.79655 -80.90446 40054 ft 432 kts 269°
2026-04-26 13:27 38.79398 -80.98175 40059 ft 433 kts 269°
2026-04-26 13:28 38.79137 -81.05844 40055 ft 432 kts 269°
2026-04-26 13:28 38.78871 -81.13515 40056 ft 432 kts 269°
2026-04-26 13:29 38.78598 -81.21217 40060 ft 432 kts 269°
2026-04-26 13:29 38.78322 -81.28909 40059 ft 432 kts 269°
2026-04-26 13:30 38.78042 -81.36546 40059 ft 432 kts 269°
2026-04-26 13:30 38.77755 -81.44247 40071 ft 432 kts 269°
2026-04-26 13:31 38.77463 -81.51936 40068 ft 432 kts 269°
2026-04-26 13:31 38.77166 -81.59626 40065 ft 431 kts 269°
2026-04-26 13:32 38.76863 -81.67320 40071 ft 431 kts 269°
2026-04-26 13:32 38.76555 -81.75061 40069 ft 431 kts 269°
2026-04-26 13:33 38.76244 -81.82716 40072 ft 431 kts 269°
2026-04-26 13:33 38.75927 -81.90434 40069 ft 433 kts 269°
2026-04-26 13:34 38.75602 -81.98167 40070 ft 431 kts 269°
2026-04-26 13:34 38.75280 -82.05856 40076 ft 430 kts 269°
2026-04-26 13:35 38.74992 -82.13478 40076 ft 430 kts 269°
2026-04-26 13:35 38.74708 -82.21171 40081 ft 430 kts 269°
2026-04-26 13:36 38.74417 -82.28858 40079 ft 429 kts 269°
2026-04-26 13:36 38.74120 -82.36511 40079 ft 429 kts 269°
2026-04-26 13:37 38.73816 -82.44143 40079 ft 430 kts 270°
2026-04-26 13:37 38.73506 -82.51799 40076 ft 429 kts 269°
2026-04-26 13:38 38.73191 -82.59460 40081 ft 430 kts 269°
2026-04-26 13:38 38.72868 -82.67184 40083 ft 430 kts 269°
2026-04-26 13:39 38.72540 -82.74853 40090 ft 430 kts 269°
2026-04-26 13:39 38.72210 -82.82484 40090 ft 430 kts 269°
2026-04-26 13:40 38.71876 -82.90109 40089 ft 429 kts 269°
2026-04-26 13:40 38.71537 -82.97749 40086 ft 428 kts 269°
2026-04-26 13:41 38.71190 -83.05419 40083 ft 428 kts 269°
2026-04-26 13:41 38.70842 -83.13015 40081 ft 429 kts 269°
2026-04-26 13:42 38.70487 -83.20677 40079 ft 428 kts 269°
2026-04-26 13:42 38.70128 -83.28294 40076 ft 428 kts 269°
2026-04-26 13:43 38.69765 -83.35902 40076 ft 426 kts 269°
2026-04-26 13:43 38.69396 -83.43520 40077 ft 427 kts 269°
2026-04-26 13:44 38.69024 -83.51090 40074 ft 427 kts 269°
2026-04-26 13:44 38.68644 -83.58710 40081 ft 426 kts 270°
2026-04-26 13:45 38.68260 -83.66320 40087 ft 427 kts 269°
2026-04-26 13:45 38.67869 -83.73978 40091 ft 426 kts 269°
2026-04-26 13:46 38.67479 -83.81536 40089 ft 427 kts 269°
2026-04-26 13:46 38.67081 -83.89165 40089 ft 426 kts 269°
2026-04-26 13:47 38.66680 -83.96723 40088 ft 425 kts 269°
2026-04-26 13:47 38.66274 -84.04276 40082 ft 424 kts 269°
2026-04-26 13:48 38.65867 -84.11751 40078 ft 423 kts 269°
2026-04-26 13:48 38.65451 -84.19342 40077 ft 424 kts 269°
2026-04-26 13:49 38.65036 -84.26839 40073 ft 423 kts 269°
2026-04-26 13:49 38.64612 -84.34382 40074 ft 425 kts 269°
2026-04-26 13:50 38.64315 -84.41931 40073 ft 421 kts 274°
2026-04-26 13:50 38.64653 -84.49362 40070 ft 418 kts 278°
2026-04-26 13:51 38.65245 -84.56804 40070 ft 418 kts 279°
2026-04-26 13:51 38.65853 -84.64178 40068 ft 417 kts 279°
2026-04-26 13:52 38.66450 -84.71642 40066 ft 418 kts 278°
2026-04-26 13:52 38.67028 -84.79076 40070 ft 416 kts 278°
2026-04-26 13:53 38.67593 -84.86472 40064 ft 417 kts 278°
2026-04-26 13:53 38.68148 -84.93853 40064 ft 417 kts 278°
2026-04-26 13:54 38.68698 -85.01241 40070 ft 416 kts 278°
2026-04-26 13:54 38.69241 -85.08579 40067 ft 415 kts 278°
2026-04-26 13:55 38.69957 -85.18427 40068 ft 416 kts 278°
2026-04-26 13:56 38.70623 -85.30746 40077 ft 415 kts 277°
2026-04-26 13:56 38.70985 -85.38140 40080 ft 415 kts 277°
2026-04-26 13:57 38.71351 -85.45518 40084 ft 414 kts 277°
2026-04-26 13:57 38.71720 -85.52910 40082 ft 414 kts 277°
2026-04-26 13:58 38.72085 -85.60258 40079 ft 414 kts 277°
2026-04-26 13:58 38.72451 -85.67706 40077 ft 413 kts 277°
2026-04-26 13:59 38.72811 -85.75080 40064 ft 414 kts 277°
2026-04-26 13:59 38.73164 -85.82433 40063 ft 413 kts 277°
2026-04-26 14:00 38.73854 -85.97110 40062 ft 412 kts 277°
2026-04-26 14:01 38.74192 -86.04466 40060 ft 410 kts 277°
2026-04-26 14:01 38.74526 -86.11782 40062 ft 411 kts 277°
2026-04-26 14:02 38.74855 -86.19076 40060 ft 411 kts 277°
2026-04-26 14:02 38.75180 -86.26419 40072 ft 411 kts 277°
2026-04-26 14:03 38.75497 -86.33705 40076 ft 411 kts 277°
2026-04-26 14:03 38.75812 -86.41054 40069 ft 411 kts 277°
2026-04-26 14:04 38.76123 -86.48365 40066 ft 410 kts 277°
2026-04-26 14:04 38.76427 -86.55637 40068 ft 408 kts 277°
2026-04-26 14:05 38.76723 -86.62867 40072 ft 408 kts 277°
2026-04-26 14:05 38.77023 -86.70230 40056 ft 406 kts 276°
2026-04-26 14:06 38.77309 -86.77443 40050 ft 406 kts 276°
2026-04-26 14:06 38.77592 -86.84660 40049 ft 406 kts 276°
2026-04-26 14:07 38.77871 -86.91902 40049 ft 406 kts 276°
2026-04-26 14:07 38.78145 -86.99119 40053 ft 405 kts 276°
2026-04-26 14:08 38.78415 -87.06353 40056 ft 406 kts 276°
2026-04-26 14:08 38.78681 -87.13578 40060 ft 404 kts 276°
2026-04-26 14:09 38.78940 -87.20744 40055 ft 405 kts 276°
2026-04-26 14:09 38.79195 -87.27978 40055 ft 404 kts 276°
2026-04-26 14:10 38.79446 -87.35204 40053 ft 405 kts 276°
2026-04-26 14:10 38.79693 -87.42402 40050 ft 404 kts 276°
2026-04-26 14:11 38.80057 -87.53226 40059 ft 402 kts 275°
2026-04-26 14:11 38.80291 -87.60387 40057 ft 402 kts 276°
2026-04-26 14:12 38.80524 -87.67606 40056 ft 403 kts 275°
2026-04-26 14:12 38.80753 -87.74812 40060 ft 403 kts 275°
2026-04-26 14:13 38.81084 -87.85651 40056 ft 402 kts 275°
2026-04-26 14:14 38.81297 -87.92807 40049 ft 402 kts 275°
2026-04-26 14:14 38.81508 -87.99944 40054 ft 402 kts 275°
2026-04-26 14:15 38.81714 -88.07133 40052 ft 401 kts 275°
2026-04-26 14:15 38.81914 -88.14278 40050 ft 400 kts 275°
2026-04-26 14:16 38.82111 -88.21446 40053 ft 402 kts 275°
2026-04-26 14:16 38.82303 -88.28599 40047 ft 401 kts 275°
2026-04-26 14:17 38.82490 -88.35755 40053 ft 402 kts 275°
2026-04-26 14:17 38.82674 -88.42912 40052 ft 402 kts 275°
2026-04-26 14:18 38.82855 -88.50063 40045 ft 400 kts 275°
2026-04-26 14:18 38.83031 -88.57246 40043 ft 401 kts 275°
2026-04-26 14:19 38.83201 -88.64392 40035 ft 399 kts 274°
2026-04-26 14:19 38.83363 -88.71442 40044 ft 400 kts 274°
2026-04-26 14:20 38.83526 -88.78600 40037 ft 399 kts 274°
2026-04-26 14:20 38.83682 -88.85699 40035 ft 399 kts 274°
2026-04-26 14:21 38.83835 -88.92852 40029 ft 400 kts 274°
2026-04-26 14:21 38.83984 -88.99972 40032 ft 399 kts 274°
2026-04-26 14:22 38.84130 -89.07133 40031 ft 399 kts 274°
2026-04-26 14:22 38.84270 -89.14217 40028 ft 398 kts 274°
2026-04-26 14:23 38.84404 -89.21312 40028 ft 398 kts 274°
2026-04-26 14:23 38.84533 -89.28429 40026 ft 398 kts 274°
2026-04-26 14:24 38.84659 -89.35542 40027 ft 397 kts 273°
2026-04-26 14:24 38.84780 -89.42645 40027 ft 398 kts 274°
2026-04-26 14:25 38.84896 -89.49728 40025 ft 396 kts 274°
2026-04-26 14:25 38.85010 -89.56782 40032 ft 397 kts 274°
2026-04-26 14:26 38.85117 -89.63892 40031 ft 396 kts 274°
2026-04-26 14:26 38.85224 -89.71091 40034 ft 397 kts 273°
2026-04-26 14:27 38.85323 -89.78130 40038 ft 395 kts 273°
2026-04-26 14:27 38.85418 -89.85209 40030 ft 397 kts 273°
2026-04-26 14:28 38.85508 -89.92308 40027 ft 397 kts 272°
2026-04-26 14:28 38.85596 -89.99399 40023 ft 395 kts 272°
2026-04-26 14:29 38.85678 -90.06439 40023 ft 396 kts 273°
2026-04-26 14:29 38.85755 -90.13520 40023 ft 396 kts 272°
2026-04-26 14:30 38.85827 -90.20602 40023 ft 396 kts 272°
2026-04-26 14:30 38.85897 -90.27678 40020 ft 396 kts 272°
2026-04-26 14:31 38.85962 -90.34752 40022 ft 396 kts 272°
2026-04-26 14:31 38.86024 -90.41826 40015 ft 395 kts 272°
2026-04-26 14:32 38.86167 -90.48875 40022 ft 395 kts 276°
2026-04-26 14:32 38.86850 -90.55858 40018 ft 394 kts 279°
2026-04-26 14:33 38.87723 -90.62817 40018 ft 394 kts 280°
2026-04-26 14:33 38.88594 -90.69866 40018 ft 394 kts 279°
2026-04-26 14:34 38.89432 -90.76884 40015 ft 394 kts 279°
2026-04-26 14:34 38.90248 -90.83871 40014 ft 394 kts 278°
2026-04-26 14:35 38.91049 -90.90802 40014 ft 395 kts 278°
2026-04-26 14:35 38.91852 -90.97807 40019 ft 394 kts 278°
2026-04-26 14:36 38.92647 -91.04774 40015 ft 394 kts 279°
2026-04-26 14:36 38.93443 -91.11811 40003 ft 395 kts 278°
2026-04-26 14:37 38.94222 -91.18743 39995 ft 394 kts 278°
2026-04-26 14:37 38.95011 -91.25781 39991 ft 395 kts 278°
2026-04-26 14:38 38.95790 -91.32764 39993 ft 394 kts 278°
2026-04-26 14:38 38.96563 -91.39754 39992 ft 395 kts 278°
2026-04-26 14:39 38.97330 -91.46724 39990 ft 395 kts 278°
2026-04-26 14:39 38.98100 -91.53751 39987 ft 395 kts 278°
2026-04-26 14:40 38.98863 -91.60757 39989 ft 397 kts 278°
2026-04-26 14:40 38.99636 -91.67899 39986 ft 397 kts 277°
2026-04-26 14:41 39.00394 -91.74951 39991 ft 397 kts 277°
2026-04-26 14:41 39.01150 -91.82009 39990 ft 396 kts 277°
2026-04-26 14:42 39.01892 -91.88975 39987 ft 394 kts 277°
2026-04-26 14:42 39.02639 -91.96023 39989 ft 395 kts 277°
2026-04-26 14:43 39.03378 -92.03048 39987 ft 396 kts 277°
2026-04-26 14:43 39.04114 -92.10078 39986 ft 395 kts 277°
2026-04-26 14:44 39.04842 -92.17082 39982 ft 395 kts 277°
2026-04-26 14:44 39.05565 -92.24080 39980 ft 395 kts 277°
2026-04-26 14:45 39.06286 -92.31097 39977 ft 396 kts 277°
2026-04-26 14:45 39.07007 -92.38155 39976 ft 395 kts 277°
2026-04-26 14:46 39.07720 -92.45181 39976 ft 395 kts 277°
2026-04-26 14:46 39.08427 -92.52200 39971 ft 396 kts 277°
2026-04-26 14:47 39.09130 -92.59212 39971 ft 395 kts 277°
2026-04-26 14:47 39.09836 -92.66286 39971 ft 395 kts 276°
2026-04-26 14:48 39.10543 -92.73425 39968 ft 396 kts 276°
2026-04-26 14:48 39.11237 -92.80476 39964 ft 394 kts 276°
2026-04-26 14:49 39.11922 -92.87476 39962 ft 394 kts 276°
2026-04-26 14:49 39.12601 -92.94464 39959 ft 394 kts 276°
2026-04-26 14:50 39.13280 -93.01506 39960 ft 395 kts 276°
2026-04-26 14:50 39.13953 -93.08515 39955 ft 395 kts 276°
2026-04-26 14:51 39.14621 -93.15522 39948 ft 395 kts 276°
2026-04-26 14:51 39.15289 -93.22581 39950 ft 396 kts 276°
2026-04-26 14:52 39.15953 -93.29643 39946 ft 395 kts 276°
2026-04-26 14:52 39.16609 -93.36659 39944 ft 396 kts 276°
2026-04-26 14:53 39.17264 -93.43704 39935 ft 397 kts 276°
2026-04-26 14:53 39.17916 -93.50776 39933 ft 397 kts 275°
2026-04-26 14:54 39.18564 -93.57851 39931 ft 396 kts 275°
2026-04-26 14:54 39.19204 -93.64896 39932 ft 396 kts 276°
2026-04-26 14:55 39.19848 -93.72051 39927 ft 396 kts 275°
2026-04-26 14:55 39.20480 -93.79105 39926 ft 396 kts 275°
2026-04-26 14:56 39.21108 -93.86159 39924 ft 397 kts 275°
2026-04-26 14:56 39.21737 -93.93282 39924 ft 397 kts 275°
2026-04-26 14:57 39.22358 -94.00356 39922 ft 398 kts 275°
2026-04-26 14:57 39.22975 -94.07433 39918 ft 398 kts 275°
2026-04-26 14:58 39.23592 -94.14557 39924 ft 398 kts 275°
2026-04-26 14:58 39.24202 -94.21666 39922 ft 397 kts 275°
2026-04-26 14:59 39.24804 -94.28752 39922 ft 398 kts 275°
2026-04-26 14:59 39.25409 -94.35895 39922 ft 397 kts 275°
2026-04-26 15:00 39.26005 -94.42973 39920 ft 397 kts 275°
2026-04-26 15:00 39.26596 -94.50056 39918 ft 398 kts 275°
2026-04-26 15:01 39.27187 -94.57196 39928 ft 398 kts 275°
2026-04-26 15:01 39.27771 -94.64302 39923 ft 396 kts 275°
2026-04-26 15:02 39.28352 -94.71433 39925 ft 396 kts 274°
2026-04-26 15:02 39.28777 -94.78551 39927 ft 395 kts 270°
2026-04-26 15:03 39.28865 -94.85664 39922 ft 395 kts 269°
2026-04-26 15:03 39.28921 -94.92763 39918 ft 395 kts 269°
2026-04-26 15:04 39.29007 -94.99867 39908 ft 395 kts 270°
2026-04-26 15:04 39.29110 -95.06956 39906 ft 395 kts 270°
2026-04-26 15:05 39.29218 -95.14034 39905 ft 395 kts 270°
2026-04-26 15:05 39.29323 -95.21139 39903 ft 395 kts 270°
2026-04-26 15:06 39.29424 -95.28189 39908 ft 394 kts 270°
2026-04-26 15:06 39.29522 -95.35294 39903 ft 395 kts 270°
2026-04-26 15:07 39.29660 -95.45892 39903 ft 395 kts 270°
2026-04-26 15:07 39.29747 -95.53008 39902 ft 395 kts 270°
2026-04-26 15:08 39.29829 -95.60085 39899 ft 394 kts 270°
2026-04-26 15:08 39.29906 -95.67181 39905 ft 395 kts 269°
2026-04-26 15:09 39.29981 -95.74329 39894 ft 394 kts 269°
2026-04-26 15:09 39.30051 -95.81405 39896 ft 395 kts 269°
2026-04-26 15:10 39.30105 -95.87287 39896 ft 394 kts 269°
2026-04-26 15:10 39.30177 -95.95562 39891 ft 394 kts 269°
2026-04-26 15:11 39.30234 -96.02704 39882 ft 394 kts 269°
2026-04-26 15:11 39.30286 -96.09787 39883 ft 396 kts 269°
2026-04-26 15:12 39.30335 -96.16924 39878 ft 395 kts 269°
2026-04-26 15:12 39.30378 -96.24003 39881 ft 395 kts 269°
2026-04-26 15:13 39.30416 -96.31119 39871 ft 395 kts 269°
2026-04-26 15:13 39.30452 -96.38189 39866 ft 393 kts 269°
2026-04-26 15:14 39.30481 -96.45287 39861 ft 394 kts 269°
2026-04-26 15:14 39.30505 -96.52345 39865 ft 393 kts 269°
2026-04-26 15:15 39.30527 -96.59412 39865 ft 393 kts 269°
2026-04-26 15:15 39.30544 -96.66496 39865 ft 392 kts 269°
2026-04-26 15:16 39.30558 -96.73550 39866 ft 392 kts 268°
2026-04-26 15:16 39.30566 -96.80563 39872 ft 393 kts 268°
2026-04-26 15:17 39.30570 -96.86436 39860 ft 391 kts 269°
2026-04-26 15:17 39.30569 -96.94595 39860 ft 392 kts 268°
2026-04-26 15:18 39.30565 -97.01657 39867 ft 392 kts 269°
2026-04-26 15:18 39.30558 -97.08691 39866 ft 391 kts 269°
2026-04-26 15:19 39.30545 -97.15710 39861 ft 391 kts 269°
2026-04-26 15:19 39.30528 -97.22711 39864 ft 391 kts 268°
2026-04-26 15:20 39.30508 -97.29775 39869 ft 391 kts 268°
2026-04-26 15:20 39.30483 -97.36767 39872 ft 390 kts 269°
2026-04-26 15:21 39.30453 -97.43802 39877 ft 390 kts 268°
2026-04-26 15:21 39.30419 -97.50796 39877 ft 390 kts 268°
2026-04-26 15:22 39.30381 -97.57803 39873 ft 390 kts 268°
2026-04-26 15:22 39.30338 -97.64828 39876 ft 389 kts 268°
2026-04-26 15:23 39.30291 -97.71886 39873 ft 389 kts 268°
2026-04-26 15:23 39.30241 -97.78898 39873 ft 388 kts 268°
2026-04-26 15:24 39.30190 -97.85847 39869 ft 387 kts 268°
2026-04-26 15:24 39.30130 -97.92839 39872 ft 388 kts 268°
2026-04-26 15:25 39.30076 -97.98666 39879 ft 387 kts 268°
2026-04-26 15:25 39.30000 -98.06777 39888 ft 387 kts 268°
2026-04-26 15:26 39.29930 -98.13716 39879 ft 387 kts 267°
2026-04-26 15:26 39.29855 -98.20665 39877 ft 386 kts 267°
2026-04-26 15:27 39.29776 -98.27593 39873 ft 386 kts 267°
2026-04-26 15:27 39.29693 -98.34538 39873 ft 386 kts 268°
2026-04-26 15:28 39.29606 -98.41518 39872 ft 386 kts 267°
2026-04-26 15:28 39.29514 -98.48435 39866 ft 386 kts 267°
2026-04-26 15:29 39.29418 -98.55374 39868 ft 385 kts 267°
2026-04-26 15:30 39.29214 -98.69312 39871 ft 385 kts 266°
2026-04-26 15:30 39.29107 -98.76240 39872 ft 384 kts 266°
2026-04-26 15:31 39.28940 -98.86606 39872 ft 384 kts 266°
2026-04-26 15:32 39.28802 -98.94658 39872 ft 383 kts 266°
2026-04-26 15:32 39.28640 -99.03833 39866 ft 383 kts 266°
2026-04-26 15:33 39.28511 -99.10746 39871 ft 385 kts 266°
2026-04-26 15:33 39.28381 -99.17611 39871 ft 382 kts 266°
2026-04-26 15:34 39.28246 -99.24534 39877 ft 384 kts 266°
2026-04-26 15:34 39.28106 -99.31439 39874 ft 385 kts 266°
2026-04-26 15:35 39.27962 -99.38342 39876 ft 384 kts 266°
2026-04-26 15:35 39.27814 -99.45238 39872 ft 384 kts 266°
2026-04-26 15:36 39.27661 -99.52147 39881 ft 384 kts 266°
2026-04-26 15:36 39.27503 -99.59052 39883 ft 385 kts 266°
2026-04-26 15:37 39.27341 -99.65988 39885 ft 385 kts 265°
2026-04-26 15:37 39.27177 -99.72913 39891 ft 385 kts 265°
2026-04-26 15:38 39.27008 -99.79851 39891 ft 385 kts 265°
2026-04-26 15:38 39.26835 -99.86763 39886 ft 385 kts 265°
2026-04-26 15:39 39.26657 -99.93684 39897 ft 387 kts 265°
2026-04-26 15:39 39.26506 -99.99491 39889 ft 384 kts 265°
2026-04-26 15:40 39.26293 -100.07540 39885 ft 385 kts 265°
2026-04-26 15:40 39.26102 -100.14487 39894 ft 386 kts 265°
2026-04-26 15:41 39.25946 -100.21369 39888 ft 386 kts 267°
2026-04-26 15:41 39.26323 -100.28339 39891 ft 390 kts 272°
2026-04-26 15:42 39.26996 -100.35273 39888 ft 390 kts 273°
2026-04-26 15:42 39.27687 -100.42248 39884 ft 390 kts 273°
2026-04-26 15:43 39.28353 -100.49206 39884 ft 391 kts 273°
2026-04-26 15:44 39.29322 -100.59640 39873 ft 391 kts 272°
2026-04-26 15:44 39.30280 -100.70200 39880 ft 392 kts 272°
2026-04-26 15:45 39.31220 -100.80651 39882 ft 391 kts 272°
2026-04-26 15:46 39.32155 -100.91189 39883 ft 392 kts 272°
2026-04-26 15:46 39.32671 -100.97045 39890 ft 392 kts 272°
2026-04-26 15:47 39.33693 -101.08736 39895 ft 393 kts 272°
2026-04-26 15:48 39.34302 -101.15751 39890 ft 393 kts 272°
2026-04-26 15:48 39.34904 -101.22751 39887 ft 393 kts 272°
2026-04-26 15:49 39.35506 -101.29795 39886 ft 393 kts 272°
2026-04-26 15:49 39.36103 -101.36852 39881 ft 394 kts 272°
2026-04-26 15:50 39.36694 -101.43869 39885 ft 392 kts 271°
2026-04-26 15:50 39.37284 -101.50928 39887 ft 393 kts 271°
2026-04-26 15:51 39.37867 -101.57953 39884 ft 394 kts 272°
2026-04-26 15:51 39.38401 -101.65024 39881 ft 392 kts 269°
2026-04-26 15:52 39.38271 -101.72040 39876 ft 388 kts 260°
2026-04-26 15:52 39.37337 -101.78928 39878 ft 387 kts 256°
2026-04-26 15:53 39.36290 -101.85725 39886 ft 385 kts 257°
2026-04-26 15:53 39.35252 -101.92560 39888 ft 385 kts 257°
2026-04-26 15:54 39.34220 -101.99347 39892 ft 386 kts 256°
2026-04-26 15:54 39.33176 -102.06171 39896 ft 384 kts 257°
2026-04-26 15:55 39.32133 -102.12959 39896 ft 386 kts 257°
2026-04-26 15:55 39.31088 -102.19733 39888 ft 386 kts 257°
2026-04-26 15:56 39.30028 -102.26572 39882 ft 387 kts 256°
2026-04-26 15:56 39.28966 -102.33395 39872 ft 386 kts 256°
2026-04-26 15:57 39.27904 -102.40182 39875 ft 387 kts 257°
2026-04-26 15:57 39.26835 -102.46994 39887 ft 388 kts 257°
2026-04-26 15:58 39.25763 -102.53803 39886 ft 387 kts 256°
2026-04-26 15:58 39.24686 -102.60614 39885 ft 388 kts 257°
2026-04-26 15:59 39.23603 -102.67429 39878 ft 387 kts 256°
2026-04-26 15:59 39.22514 -102.74264 39886 ft 387 kts 256°
2026-04-26 16:00 39.21421 -102.81099 39886 ft 386 kts 256°
2026-04-26 16:00 39.20334 -102.87859 39884 ft 385 kts 256°
2026-04-26 16:01 39.19240 -102.94643 39873 ft 385 kts 256°
2026-04-26 16:01 39.18148 -103.01385 39856 ft 385 kts 256°
2026-04-26 16:02 39.17046 -103.08162 39854 ft 387 kts 256°
2026-04-26 16:02 39.15941 -103.14931 39852 ft 386 kts 256°
2026-04-26 16:03 39.14831 -103.21706 39850 ft 389 kts 256°
2026-04-26 16:03 39.13702 -103.28571 39854 ft 389 kts 256°
2026-04-26 16:04 39.12585 -103.35339 39858 ft 389 kts 256°
2026-04-26 16:04 39.11451 -103.42186 39862 ft 390 kts 256°
2026-04-26 16:05 39.10318 -103.48988 39859 ft 391 kts 256°
2026-04-26 16:05 39.09176 -103.55827 39866 ft 390 kts 256°
2026-04-26 16:06 39.08027 -103.62683 39873 ft 392 kts 256°
2026-04-26 16:06 39.06869 -103.69566 39868 ft 392 kts 255°
2026-04-26 16:07 39.05712 -103.76412 39867 ft 392 kts 255°
2026-04-26 16:07 39.04554 -103.83241 39867 ft 393 kts 255°
2026-04-26 16:08 39.03379 -103.90146 39856 ft 394 kts 255°
2026-04-26 16:08 39.02208 -103.96992 39850 ft 394 kts 255°
2026-04-26 16:09 39.01030 -104.03867 39842 ft 394 kts 255°
2026-04-26 16:09 38.99843 -104.10759 39847 ft 395 kts 255°
2026-04-26 16:10 38.98657 -104.17625 39849 ft 394 kts 255°
2026-04-26 16:10 38.97454 -104.24551 39860 ft 397 kts 255°
2026-04-26 16:11 38.96249 -104.31469 39876 ft 395 kts 255°
2026-04-26 16:11 38.95049 -104.38344 39841 ft 394 kts 255°
2026-04-26 16:12 38.93839 -104.45243 39827 ft 395 kts 255°
2026-04-26 16:12 38.92013 -104.55596 39816 ft 397 kts 255°
2026-04-26 16:13 38.90783 -104.62545 39807 ft 397 kts 255°
2026-04-26 16:13 38.89548 -104.69500 39800 ft 397 kts 255°
2026-04-26 16:14 38.88299 -104.76506 39784 ft 399 kts 255°
2026-04-26 16:15 38.86446 -104.86857 39768 ft 399 kts 255°
2026-04-26 16:15 38.85189 -104.93845 39755 ft 399 kts 255°
2026-04-26 16:16 38.83308 -105.04248 39846 ft 400 kts 255°
2026-04-26 16:16 38.82037 -105.11239 39906 ft 402 kts 255°
2026-04-26 16:17 38.80767 -105.18200 39916 ft 401 kts 255°
2026-04-26 16:17 38.79497 -105.25146 39918 ft 400 kts 255°
2026-04-26 16:18 38.77585 -105.35551 39930 ft 400 kts 255°
2026-04-26 16:19 38.75659 -105.45982 39925 ft 400 kts 255°
2026-04-26 16:20 38.73732 -105.56365 39928 ft 400 kts 255°
2026-04-26 16:20 38.71786 -105.66803 39909 ft 399 kts 255°
2026-04-26 16:21 38.70474 -105.73790 39901 ft 400 kts 255°
2026-04-26 16:21 38.69169 -105.80715 39890 ft 399 kts 255°
2026-04-26 16:22 38.67861 -105.87632 39907 ft 401 kts 254°
2026-04-26 16:22 38.66536 -105.94625 39896 ft 401 kts 255°
2026-04-26 16:23 38.65216 -106.01562 39894 ft 400 kts 255°
2026-04-26 16:23 38.63888 -106.08517 39882 ft 400 kts 254°
2026-04-26 16:24 38.62561 -106.15453 39905 ft 401 kts 254°
2026-04-26 16:24 38.61235 -106.22356 39910 ft 400 kts 255°
2026-04-26 16:25 38.59902 -106.29274 39904 ft 400 kts 255°
2026-04-26 16:25 38.58565 -106.36190 39908 ft 400 kts 254°
2026-04-26 16:26 38.57447 -106.41947 39906 ft 401 kts 255°
2026-04-26 16:26 38.55875 -106.50005 39940 ft 399 kts 254°
2026-04-26 16:27 38.54525 -106.56906 39964 ft 401 kts 254°
2026-04-26 16:27 38.53163 -106.63849 39973 ft 399 kts 255°
2026-04-26 16:28 38.51801 -106.70770 39966 ft 400 kts 254°
2026-04-26 16:28 38.50443 -106.77651 39953 ft 399 kts 254°
2026-04-26 16:29 38.49082 -106.84525 39904 ft 402 kts 254°
2026-04-26 16:29 38.47698 -106.91485 39870 ft 399 kts 254°
2026-04-26 16:30 38.46317 -106.98345 39876 ft 400 kts 253°
2026-04-26 16:30 38.44493 -107.05056 39933 ft 399 kts 245°
2026-04-26 16:31 38.41840 -107.11273 39991 ft 399 kts 239°
2026-04-26 16:31 38.38946 -107.17353 39990 ft 400 kts 240°
2026-04-26 16:32 38.36543 -107.22409 40001 ft 398 kts 239°
2026-04-26 16:32 38.33213 -107.29442 39988 ft 399 kts 239°
2026-04-26 16:33 38.30338 -107.35514 39980 ft 398 kts 240°
2026-04-26 16:33 38.27478 -107.41548 39951 ft 400 kts 240°
2026-04-26 16:34 38.24590 -107.47636 39943 ft 399 kts 240°
2026-04-26 16:34 38.21715 -107.53687 39928 ft 400 kts 240°
2026-04-26 16:35 38.18811 -107.59779 39930 ft 400 kts 240°
2026-04-26 16:35 38.15922 -107.65833 39920 ft 400 kts 239°
2026-04-26 16:36 38.13019 -107.71904 39922 ft 400 kts 239°
2026-04-26 16:36 38.10136 -107.77927 39918 ft 399 kts 239°
2026-04-26 16:37 38.07240 -107.83967 39906 ft 400 kts 239°
2026-04-26 16:37 38.04825 -107.88993 39898 ft 399 kts 239°
2026-04-26 16:38 38.01444 -107.96018 39887 ft 399 kts 239°
2026-04-26 16:38 37.98539 -108.02035 39903 ft 399 kts 239°
2026-04-26 16:39 37.95627 -108.08056 39914 ft 400 kts 239°
2026-04-26 16:39 37.92708 -108.14081 39925 ft 400 kts 239°
2026-04-26 16:40 37.89825 -108.20023 39924 ft 398 kts 239°
2026-04-26 16:40 37.86879 -108.26083 39921 ft 399 kts 239°
2026-04-26 16:41 37.83952 -108.32094 39914 ft 399 kts 239°
2026-04-26 16:41 37.81049 -108.38048 39910 ft 398 kts 239°
2026-04-26 16:42 37.78125 -108.44030 39898 ft 397 kts 239°
2026-04-26 16:42 37.75212 -108.49977 39901 ft 398 kts 239°
2026-04-26 16:43 37.72298 -108.55919 39896 ft 397 kts 239°
2026-04-26 16:43 37.69372 -108.61871 39892 ft 396 kts 239°
2026-04-26 16:44 37.66460 -108.67781 39882 ft 397 kts 238°
2026-04-26 16:44 37.63517 -108.73749 39873 ft 397 kts 239°
2026-04-26 16:45 37.60606 -108.79641 39872 ft 396 kts 239°
2026-04-26 16:45 37.57686 -108.85541 39861 ft 395 kts 238°
2026-04-26 16:46 37.54747 -108.91467 39852 ft 397 kts 239°
2026-04-26 16:46 37.51815 -108.97368 39860 ft 396 kts 239°
2026-04-26 16:47 37.48901 -109.03222 39866 ft 396 kts 239°
2026-04-26 16:47 37.45965 -109.09106 39865 ft 393 kts 239°
2026-04-26 16:48 37.43053 -109.14936 39863 ft 396 kts 239°
2026-04-26 16:48 37.40110 -109.20818 39866 ft 394 kts 239°
2026-04-26 16:49 37.37185 -109.26653 39861 ft 393 kts 239°
2026-04-26 16:49 37.34265 -109.32471 39857 ft 393 kts 239°
2026-04-26 16:50 37.31324 -109.38316 39856 ft 394 kts 239°
2026-04-26 16:50 37.28402 -109.44116 39852 ft 392 kts 239°
2026-04-26 16:51 37.25460 -109.49939 39853 ft 394 kts 239°
2026-04-26 16:51 37.22533 -109.55728 39852 ft 392 kts 239°
2026-04-26 16:52 37.20576 -109.59597 39851 ft 393 kts 239°
2026-04-26 16:52 37.16634 -109.67368 39853 ft 393 kts 238°
2026-04-26 16:53 37.13701 -109.73138 39856 ft 392 kts 239°
2026-04-26 16:53 37.10757 -109.78918 39850 ft 391 kts 238°
2026-04-26 16:54 37.07827 -109.84664 39853 ft 393 kts 239°
2026-04-26 16:54 37.04894 -109.90403 39846 ft 389 kts 238°
2026-04-26 16:55 37.01957 -109.96137 39846 ft 393 kts 239°
2026-04-26 16:55 36.99020 -110.01908 39848 ft 392 kts 239°
2026-04-26 16:56 36.94882 -110.10731 39851 ft 390 kts 241°
2026-04-26 16:57 36.92149 -110.16646 39851 ft 391 kts 241°
2026-04-26 16:57 36.87986 -110.25568 39854 ft 392 kts 241°
2026-04-26 16:58 36.86142 -110.29496 39858 ft 392 kts 240°
2026-04-26 16:59 36.81065 -110.40263 39845 ft 392 kts 240°
2026-04-26 17:00 36.75500 -110.52005 39846 ft 392 kts 241°
2026-04-26 17:00 36.71307 -110.60829 39852 ft 392 kts 241°
2026-04-26 17:01 36.68508 -110.66722 39850 ft 394 kts 240°
2026-04-26 17:01 36.65716 -110.72578 39846 ft 392 kts 240°
2026-04-26 17:02 36.62907 -110.78455 39855 ft 394 kts 240°
2026-04-26 17:02 36.60117 -110.84285 39843 ft 392 kts 240°
2026-04-26 17:03 36.57298 -110.90163 39844 ft 395 kts 240°
2026-04-26 17:03 36.54494 -110.96004 39843 ft 392 kts 240°
2026-04-26 17:04 36.51680 -111.01858 39850 ft 395 kts 240°
2026-04-26 17:04 36.48858 -111.07715 39843 ft 393 kts 240°
2026-04-26 17:05 36.46063 -111.13506 39846 ft 393 kts 240°
2026-04-26 17:05 36.43237 -111.19344 39855 ft 394 kts 240°
2026-04-26 17:06 36.40397 -111.25204 39857 ft 392 kts 240°
2026-04-26 17:06 36.37577 -111.31016 39865 ft 393 kts 240°
2026-04-26 17:07 36.34742 -111.36848 39845 ft 394 kts 240°
2026-04-26 17:07 36.31915 -111.42655 39861 ft 393 kts 240°
2026-04-26 17:08 36.29085 -111.48454 39858 ft 394 kts 240°
2026-04-26 17:08 36.26241 -111.54277 39861 ft 396 kts 240°
2026-04-26 17:09 36.23866 -111.59131 39862 ft 393 kts 240°
2026-04-26 17:09 36.20527 -111.65939 39864 ft 395 kts 239°
2026-04-26 17:10 36.17660 -111.71780 39862 ft 393 kts 239°
2026-04-26 17:10 36.14816 -111.77558 39857 ft 395 kts 239°
2026-04-26 17:11 36.11944 -111.83387 39864 ft 395 kts 239°
2026-04-26 17:11 36.09078 -111.89193 39859 ft 396 kts 240°
2026-04-26 17:12 36.04737 -111.97970 39878 ft 399 kts 240°
2026-04-26 17:13 36.00372 -112.06768 39907 ft 400 kts 239°
2026-04-26 17:14 35.95998 -112.15559 39917 ft 397 kts 239°
2026-04-26 17:14 35.91656 -112.24265 39913 ft 396 kts 239°
2026-04-26 17:15 35.87333 -112.32910 39894 ft 394 kts 240°
2026-04-26 17:16 35.84455 -112.38656 39891 ft 394 kts 240°
2026-04-26 17:16 35.81583 -112.44382 39894 ft 392 kts 240°
2026-04-26 17:17 35.78711 -112.50099 39896 ft 393 kts 240°
2026-04-26 17:17 35.75814 -112.55850 39896 ft 392 kts 240°
2026-04-26 17:18 35.72927 -112.61573 39890 ft 391 kts 239°
2026-04-26 17:18 35.70020 -112.67329 39885 ft 391 kts 239°
2026-04-26 17:19 35.65727 -112.75814 39874 ft 391 kts 239°
2026-04-26 17:19 35.62856 -112.81476 39872 ft 389 kts 239°
2026-04-26 17:20 35.60935 -112.85255 39868 ft 388 kts 239°
2026-04-26 17:20 35.57103 -112.92791 39864 ft 389 kts 239°
2026-04-26 17:21 35.54243 -112.98402 39879 ft 388 kts 239°
2026-04-26 17:21 35.51366 -113.04037 39885 ft 388 kts 239°
2026-04-26 17:22 35.48489 -113.09664 39887 ft 389 kts 240°
2026-04-26 17:22 35.45626 -113.15255 39885 ft 389 kts 239°
2026-04-26 17:23 35.42745 -113.20873 39895 ft 387 kts 240°
2026-04-26 17:23 35.39866 -113.26473 39903 ft 388 kts 240°
2026-04-26 17:24 35.36968 -113.32104 39900 ft 389 kts 239°
2026-04-26 17:24 35.34075 -113.37714 39908 ft 388 kts 240°
2026-04-26 17:25 35.31193 -113.43297 39897 ft 388 kts 240°
2026-04-26 17:25 35.28309 -113.48876 39896 ft 387 kts 240°
2026-04-26 17:26 35.25421 -113.54448 39892 ft 387 kts 239°
2026-04-26 17:26 35.22531 -113.60014 39897 ft 386 kts 240°
2026-04-26 17:27 35.19619 -113.65618 39889 ft 388 kts 239°
2026-04-26 17:27 35.16714 -113.71201 39897 ft 388 kts 239°
2026-04-26 17:28 35.13800 -113.76794 39895 ft 388 kts 239°
2026-04-26 17:28 35.10888 -113.82362 39897 ft 387 kts 239°
2026-04-26 17:29 35.08452 -113.87016 39895 ft 388 kts 239°
2026-04-26 17:29 35.05059 -113.93500 39889 ft 388 kts 239°
2026-04-26 17:30 35.02150 -113.99046 39893 ft 388 kts 239°
2026-04-26 17:30 34.99238 -114.04584 39898 ft 387 kts 239°
2026-04-26 17:31 34.96310 -114.10149 39908 ft 386 kts 239°
2026-04-26 17:31 34.93394 -114.15681 39908 ft 388 kts 239°
2026-04-26 17:32 34.90492 -114.21178 39912 ft 385 kts 239°
2026-04-26 17:32 34.87544 -114.26755 39906 ft 387 kts 239°
2026-04-26 17:33 34.84646 -114.32225 39898 ft 385 kts 239°
2026-04-26 17:34 34.80271 -114.40471 39887 ft 385 kts 239°
2026-04-26 17:34 34.77280 -114.45951 39882 ft 388 kts 237°
2026-04-26 17:35 34.73703 -114.50890 39890 ft 390 kts 229°
2026-04-26 17:35 34.69748 -114.55396 39890 ft 390 kts 227°
2026-04-26 17:36 34.65712 -114.59916 39890 ft 390 kts 227°
2026-04-26 17:36 34.61731 -114.64409 39895 ft 390 kts 227°
2026-04-26 17:37 34.57768 -114.68903 39892 ft 390 kts 227°
2026-04-26 17:37 34.53788 -114.73427 39888 ft 389 kts 227°
2026-04-26 17:38 34.47861 -114.80164 39888 ft 389 kts 227°
2026-04-26 17:38 34.43911 -114.84641 39887 ft 389 kts 227°
2026-04-26 17:39 34.39966 -114.89106 39889 ft 387 kts 227°
2026-04-26 17:39 34.36014 -114.93579 39884 ft 388 kts 227°
2026-04-26 17:40 34.33369 -114.96569 39887 ft 388 kts 228°
2026-04-26 17:40 34.28119 -115.02488 39884 ft 387 kts 228°
2026-04-26 17:41 34.24173 -115.06934 39880 ft 387 kts 227°
2026-04-26 17:41 34.20229 -115.11370 39883 ft 387 kts 227°
2026-04-26 17:42 34.16262 -115.15824 39886 ft 386 kts 227°
2026-04-26 17:42 34.12325 -115.20243 39884 ft 387 kts 227°
2026-04-26 17:43 34.08387 -115.24658 39889 ft 386 kts 227°
2026-04-26 17:43 34.04440 -115.29073 39885 ft 384 kts 227°
2026-04-26 17:44 34.00493 -115.33485 39892 ft 384 kts 227°
2026-04-26 17:44 33.96553 -115.37881 39908 ft 385 kts 228°
2026-04-26 17:45 33.92627 -115.42255 39912 ft 384 kts 228°
2026-04-26 17:45 33.88691 -115.46638 39916 ft 385 kts 227°
2026-04-26 17:46 33.84752 -115.51014 39855 ft 374 kts 227°
2026-04-26 17:46 33.82867 -115.53101 39585 ft 365 kts 227°
2026-04-26 17:46 33.81002 -115.55168 39058 ft 362 kts 229°
2026-04-26 17:47 33.79140 -115.57236 38368 ft 362 kts 228°
2026-04-26 17:47 33.78543 -115.57899 38158 ft 362 kts 229°
2026-04-26 17:47 33.75435 -115.61350 36935 ft 364 kts 228°
2026-04-26 17:47 33.73584 -115.63403 36201 ft 364 kts 227°
2026-04-26 17:48 33.71717 -115.65471 35443 ft 362 kts 227°
2026-04-26 17:48 33.69854 -115.67532 34810 ft 361 kts 227°
2026-04-26 17:48 33.68005 -115.69576 34120 ft 360 kts 227°
2026-04-26 17:48 33.66163 -115.71609 33382 ft 360 kts 227°
2026-04-26 17:49 33.64328 -115.73635 32597 ft 360 kts 228°
2026-04-26 17:49 33.62539 -115.75777 31746 ft 358 kts 232°
2026-04-26 17:49 33.60957 -115.78052 31008 ft 354 kts 236°
2026-04-26 17:49 33.59491 -115.80456 30243 ft 352 kts 238°
2026-04-26 17:50 33.58115 -115.82833 29587 ft 347 kts 238°
2026-04-26 17:50 33.56758 -115.85213 28821 ft 346 kts 238°
2026-04-26 17:50 33.55418 -115.87570 28076 ft 344 kts 238°
2026-04-26 17:50 33.54057 -115.89952 27300 ft 343 kts 238°
2026-04-26 17:51 33.52721 -115.92281 26494 ft 343 kts 237°
2026-04-26 17:51 33.51358 -115.94648 26018 ft 340 kts 237°
2026-04-26 17:51 33.50032 -115.96947 25888 ft 339 kts 238°
2026-04-26 17:51 33.48674 -115.99297 25729 ft 339 kts 238°
2026-04-26 17:52 33.47348 -116.01586 25289 ft 333 kts 238°
2026-04-26 17:52 33.46028 -116.03865 24821 ft 339 kts 238°
2026-04-26 17:52 33.44656 -116.06235 24303 ft 343 kts 238°
2026-04-26 17:52 33.43314 -116.08544 23800 ft 337 kts 238°
2026-04-26 17:53 33.41994 -116.10812 23320 ft 330 kts 238°
2026-04-26 17:53 33.40659 -116.13106 22820 ft 336 kts 238°
2026-04-26 17:53 33.39326 -116.15400 22318 ft 337 kts 238°
2026-04-26 17:54 33.36685 -116.19930 21332 ft 325 kts 238°
2026-04-26 17:54 33.35367 -116.22166 20840 ft 334 kts 236°
2026-04-26 17:54 33.33892 -116.24305 20337 ft 335 kts 229°
2026-04-26 17:54 33.32068 -116.26024 19837 ft 334 kts 217°
2026-04-26 17:55 33.30033 -116.27349 19337 ft 334 kts 212°
2026-04-26 17:55 33.27890 -116.28583 18828 ft 341 kts 211°
2026-04-26 17:55 33.25726 -116.29794 18316 ft 337 kts 211°
2026-04-26 17:55 33.23630 -116.30969 17820 ft 330 kts 211°
2026-04-26 17:56 33.21553 -116.32151 17282 ft 326 kts 211°
2026-04-26 17:56 33.17411 -116.34562 16253 ft 330 kts 212°
2026-04-26 17:57 33.13374 -116.36916 15270 ft 319 kts 212°
2026-04-26 17:57 33.11330 -116.38114 14765 ft 326 kts 212°
2026-04-26 17:57 33.09295 -116.39307 14267 ft 323 kts 212°
2026-04-26 17:57 33.07279 -116.40482 13765 ft 317 kts 212°
2026-04-26 17:58 33.01293 -116.43972 12383 ft 318 kts 211°
2026-04-26 17:59 32.97234 -116.45744 11679 ft 306 kts 203°
2026-04-26 17:59 32.95170 -116.46465 11223 ft 308 kts 202°
2026-04-26 17:59 32.93087 -116.47192 10760 ft 311 kts 202°
2026-04-26 17:59 32.91011 -116.47932 10351 ft 305 kts 203°
2026-04-26 18:00 32.88997 -116.48660 10142 ft 293 kts 203°
2026-04-26 18:00 32.87082 -116.49355 10044 ft 278 kts 204°
2026-04-26 18:00 32.85258 -116.50024 9809 ft 270 kts 204°
2026-04-26 18:00 32.83449 -116.50695 9396 ft 270 kts 204°
2026-04-26 18:01 32.81652 -116.51361 9025 ft 268 kts 204°
2026-04-26 18:01 32.79884 -116.52013 8664 ft 266 kts 204°
2026-04-26 18:01 32.78118 -116.52662 8419 ft 263 kts 203°
2026-04-26 18:01 32.76341 -116.53315 8426 ft 268 kts 202°
2026-04-26 18:02 32.74538 -116.53976 8439 ft 267 kts 202°
2026-04-26 18:02 32.73938 -116.54195 8439 ft 269 kts 203°
2026-04-26 18:02 32.70958 -116.55283 8438 ft 268 kts 203°
2026-04-26 18:02 32.69183 -116.55931 8434 ft 267 kts 203°
2026-04-26 18:03 32.67390 -116.56597 8437 ft 266 kts 205°
2026-04-26 18:03 32.65713 -116.57497 8412 ft 261 kts 216°
2026-04-26 18:03 32.64284 -116.58759 8343 ft 254 kts 233°
2026-04-26 18:03 32.63551 -116.60616 8091 ft 245 kts 265°
2026-04-26 18:04 32.63702 -116.62592 7844 ft 243 kts 283°
2026-04-26 18:04 32.64095 -116.64556 7591 ft 243 kts 282°
2026-04-26 18:04 32.64399 -116.66517 7327 ft 242 kts 278°
2026-04-26 18:05 32.64835 -116.70503 7263 ft 243 kts 277°
2026-04-26 18:05 32.65036 -116.72481 7265 ft 244 kts 277°
2026-04-26 18:05 32.65240 -116.74477 7048 ft 245 kts 277°
2026-04-26 18:05 32.65447 -116.76490 6795 ft 245 kts 277°
2026-04-26 18:06 32.65652 -116.78485 6548 ft 242 kts 277°
2026-04-26 18:06 32.65857 -116.80473 6297 ft 242 kts 277°
2026-04-26 18:06 32.66038 -116.82462 6049 ft 243 kts 271°
2026-04-26 18:06 32.66035 -116.84464 5851 ft 240 kts 274°
2026-04-26 18:07 32.66278 -116.86419 5676 ft 240 kts 280°
2026-04-26 18:07 32.66591 -116.88366 5423 ft 235 kts 280°
2026-04-26 18:07 32.66843 -116.90247 5177 ft 230 kts 278°
2026-04-26 18:07 32.66953 -116.91503 5009 ft 227 kts 274°
2026-04-26 18:08 32.67211 -116.93951 4676 ft 223 kts 282°
2026-04-26 18:08 32.67618 -116.95721 4424 ft 220 kts 287°
2026-04-26 18:08 32.68077 -116.97438 4176 ft 217 kts 287°
2026-04-26 18:08 32.68509 -116.99161 3926 ft 215 kts 286°
2026-04-26 18:09 32.68919 -117.00855 3625 ft 216 kts 286°
2026-04-26 18:09 32.69334 -117.02557 3257 ft 214 kts 286°
2026-04-26 18:09 32.69750 -117.04237 2877 ft 206 kts 286°
2026-04-26 18:09 32.70140 -117.05826 2507 ft 199 kts 286°
2026-04-26 18:10 32.70504 -117.07311 2150 ft 178 kts 285°
2026-04-26 18:10 32.70833 -117.08656 1775 ft 163 kts 285°
2026-04-26 18:10 32.71138 -117.09904 1483 ft 148 kts 285°
2026-04-26 18:10 32.71418 -117.11029 1277 ft 134 kts 285°
2026-04-26 18:11 32.71665 -117.12058 1181 ft 127 kts 285°
2026-04-26 18:11 32.71912 -117.13066 1085 ft 126 kts 285°
2026-04-26 18:11 32.72155 -117.14056 987 ft 126 kts 285°
2026-04-26 18:11 32.72371 -117.15080 894 ft 124 kts 280°
2026-04-26 18:12 32.72481 -117.16084 867 ft 122 kts 273°
2026-04-26 18:12 32.72445 -117.17112 845 ft 123 kts 265°
2026-04-26 18:12 32.72337 -117.18120 864 ft 122 kts 263°
2026-04-26 18:12 32.72154 -117.19102 883 ft 122 kts 253°
2026-04-26 18:13 32.71795 -117.20021 868 ft 125 kts 246°
2026-04-26 18:13 32.71392 -117.20939 882 ft 124 kts 246°
2026-04-26 18:13 32.70987 -117.21837 910 ft 123 kts 246°
2026-04-26 18:13 32.70701 -117.22419 897 ft 125 kts 242°
2026-04-26 18:14 32.69952 -117.23503 910 ft 127 kts 231°
2026-04-26 18:14 32.69338 -117.24261 897 ft 128 kts 230°
2026-04-26 18:14 32.68636 -117.24932 882 ft 132 kts 214°
2026-04-26 18:14 32.67740 -117.25253 881 ft 139 kts 188°
2026-04-26 18:15 32.66781 -117.25010 889 ft 144 kts 154°
2026-04-26 18:15 32.66118 -117.24123 825 ft 153 kts 110°
2026-04-26 18:15 32.66228 -117.22946 847 ft 136 kts 44°
2026-04-26 18:15 32.67030 -117.22450 659 ft 128 kts 14°
2026-04-26 18:16 32.67873 -117.22167 398 ft 122 kts
2026-04-26 18:16 32.69445 -117.21679 29 ft 103 kts 14°
2026-04-26 18:16 32.69922 -117.21526 28 ft 49 kts 15°
2026-04-26 18:17 32.70227 -117.21426 28 ft 42 kts 15°
2026-04-26 18:17 32.70403 -117.21352 28 ft 18 kts 44°
2026-04-26 18:17 32.70409 -117.21256 28 ft 7 kts 109°
2026-04-26 18:17 32.70370 -117.21227 28 ft 7 kts 177°
2026-04-26 18:18 32.70313 -117.21242 28 ft 10 kts 196°
2026-04-26 18:18 32.70210 -117.21276 28 ft 17 kts 195°
2026-04-26 18:18 32.70088 -117.21315 28 ft 18 kts 196°
2026-04-26 18:18 32.69969 -117.21336 28 ft 17 kts 161°
2026-04-26 18:19 32.69886 -117.21225 28 ft 19 kts 122°
2026-04-26 18:19 32.69813 -117.21084 28 ft 20 kts 122°
2026-04-26 18:19 32.69732 -117.20934 28 ft 22 kts 123°
2026-04-26 18:19 32.69647 -117.20770 28 ft 24 kts 121°
2026-04-26 18:20 32.69556 -117.20597 28 ft 24 kts 122°
2026-04-26 18:20 32.69512 -117.20464 28 ft 15 kts 60°
2026-04-26 18:20 32.69604 -117.20391 28 ft 16 kts 28°
2026-04-26 18:20 32.69639 -117.20367 28 ft 17 kts 31°
2026-04-26 18:21 32.69824 -117.20239 29 ft 19 kts 28°
2026-04-26 18:21 32.69941 -117.20163 29 ft 17 kts 30°
2026-04-26 18:21 32.69969 -117.20071 29 ft 13 kts 120°
2026-04-26 18:21 32.69941 -117.19969 29 ft 10 kts 72°
2026-04-26 18:22 32.69973 -117.19960 29 ft 3 kts 319°
2026-04-26 18:22 32.69976 -117.19967 28 ft 0 kts 302°